Weather in Poltavka

Russia / Omsk Oblast     54°22′03″N   71°45′39″E
temp.,
°C
wind,
m/s
gust,
m/s
humid.,
%
clouds,
%
prec.,
mm/h
press.,
hPa
HPBL,
m
18 may, tue
tue1800:00+23wnw33363 0.0 101227
03:00+20w411435 0.0 1012171
06:00+19wnw5115082 0.0 1011202
09:00+24wnw6840100 0.0 1011596
12:00+26nw6734100 0.0 10111497
15:00+28nw61028100 0.1 10103158
18:00+27wnw6102982 0.1 10082615
21:00+17nnw7156784 0.1 1011668
19 may, wed
wed1900:00+16nnw5971100 1.3 1011434
03:00+15nne6982100 0.1 1012721
06:00+13nne71079100 0.1 1014780
09:00+14nne8115674 0.0 10161302
12:00+16nne794587 0.0 10171948
15:00+17nne893796 0.0 10172158
18:00+17nne893523 0.0 10172178
21:00+14nne59445 0.0 1019365
20 may, thu
thu2000:00+11n365510 0.0 1020114
03:00+10nnw48545 0.0 1021208
06:00+8n486315 0.0 1022284
09:00+11nne56485 0.0 10241029
12:00+14n56315 0.0 10241579
15:00+16n56245 0.0 10231794
18:00+17n562889 0.0 10231806
21:00+14ene3439100 0.0 1023349
21 may, fri
fri2100:00+12s5942100 0.0 1022317
03:00+14sw5123875 0.0 1020447
06:00+13wnw3105873 0.0 1020263
09:00+18nnw5749100 0.0 1021627
12:00+21n2446100 0.0 10211014
15:00+24ne354092 0.0 10211526
18:00+22ese54455 0.0 1021582
21:00+18se36564 0.0 1023116
22 may, sat
sat2200:00+16sse36591 0.0 1023103
03:00+14s46691 0.0 1024108
06:00+14s35670 0.0 102497
09:00+20ssw34520 0.4 1024383
12:00+26wnw23360 0.4 10231068
15:00+29w342529 0.0 10223192
18:00+29wnw45214 0.0 10223163
21:00+25nw223434 0.0 102211